When you browse on this site, cookies collect data to enhance your experience and personalize the content and advertising you see.
Visit our Privacy Policy to learn more. By continuing to use the site, you agree to this use of cookies and data.
  • In Romania
  • List of Countries
  • For 7 days
  • Water Temperature
  • Satellite Maps
  • Weather Map
  • Weather Widgets
  • user-avatar
    Login

    Hourly Weather Gribovka

    Today, 19 July, Friday

    Time Temperature Precipitation Wind Pressure Humidity
    00:00 +12°C° 0 mm 3 mps 738 mmHg 92%
    01:00 +12°C° 0 mm 3 mps 738 mmHg 93%
    02:00 +12°C° 0 mm 3 mps 738 mmHg 94%
    03:00 +12°C° 0 mm 3 mps 738 mmHg 97%
    04:00 +12°C° 0.2 mm 4 mps 738 mmHg 96%
    05:00 +12°C° 0.2 mm 4 mps 738 mmHg 95%
    06:00 +13°C° 0.2 mm 5 mps 738 mmHg 95%
    07:00 +13°C° 0.4 mm 5 mps 738 mmHg 94%
    08:00 +13°C° 0.4 mm 6 mps 738 mmHg 94%
    09:00 +13°C° 0.4 mm 6 mps 738 mmHg 94%
    10:00 +14°C° 0.2 mm 6 mps 738 mmHg 92%
    11:00 +15°C° 0.2 mm 6 mps 738 mmHg 90%
    12:00 +16°C° 0.2 mm 7 mps 738 mmHg 88%
    13:00 +17°C° 0.2 mm 7 mps 738 mmHg 84%
    14:00 +18°C° 0.2 mm 7 mps 739 mmHg 80%
    15:00 +20°C° 0.2 mm 7 mps 739 mmHg 76%
    16:00 +20°C° 0.2 mm 7 mps 739 mmHg 78%
    17:00 +20°C° 0.2 mm 6 mps 739 mmHg 79%
    18:00 +20°C° 0.2 mm 5 mps 739 mmHg 80%
    19:00 +17°C° 0 mm 5 mps 739 mmHg 84%
    20:00 +17°C° 0 mm 4 mps 740 mmHg 88%
    21:00 +15°C° 0 mm 4 mps 740 mmHg 92%
    22:00 +14°C° 0 mm 4 mps 740 mmHg 91%
    23:00 +14°C° 0 mm 4 mps 740 mmHg 90%

    Tomorrow, 20 July, Saturday

    Time Temperature Precipitation Wind Pressure Humidity
    00:00 +14°C° 0 mm 5 mps 740 mmHg 89%
    01:00 +13°C° 0 mm 5 mps 741 mmHg 89%
    02:00 +13°C° 0 mm 5 mps 741 mmHg 88%
    03:00 +13°C° 0 mm 5 mps 741 mmHg 88%
    04:00 +13°C° 0 mm 5 mps 741 mmHg 88%
    05:00 +14°C° 0 mm 5 mps 741 mmHg 87%
    06:00 +14°C° 0 mm 5 mps 742 mmHg 86%
    07:00 +15°C° 0 mm 6 mps 742 mmHg 84%
    08:00 +16°C° 0 mm 6 mps 742 mmHg 82%
    09:00 +17°C° 0 mm 7 mps 742 mmHg 80%
    10:00 +17°C° 0.1 mm 6 mps 742 mmHg 79%
    11:00 +19°C° 0.1 mm 6 mps 743 mmHg 77%
    12:00 +20°C° 0.1 mm 6 mps 743 mmHg 76%
    13:00 +20°C° 0.5 mm 6 mps 743 mmHg 76%
    14:00 +20°C° 0.5 mm 6 mps 743 mmHg 77%
    15:00 +21°C° 0.5 mm 6 mps 743 mmHg 77%
    16:00 +20°C° 0.5 mm 6 mps 743 mmHg 79%
    17:00 +20°C° 0.5 mm 5 mps 743 mmHg 81%
    18:00 +20°C° 0.5 mm 5 mps 743 mmHg 82%
    19:00 +19°C° 0.1 mm 4 mps 744 mmHg 86%
    20:00 +18°C° 0.1 mm 4 mps 744 mmHg 89%
    21:00 +16°C° 0.1 mm 3 mps 744 mmHg 92%
    22:00 +16°C° 0 mm 3 mps 744 mmHg 93%
    23:00 +15°C° 0 mm 4 mps 744 mmHg 93%

    Day after tomorrow, 21 July, Sunday

    Time Temperature Precipitation Wind Pressure Humidity
    00:00 +14°C° 0 mm 4 mps 745 mmHg 94%
    01:00 +14°C° 0 mm 4 mps 745 mmHg 95%
    02:00 +14°C° 0 mm 4 mps 745 mmHg 95%
    03:00 +14°C° 0 mm 4 mps 745 mmHg 95%
    04:00 +14°C° 0 mm 4 mps 745 mmHg 95%
    05:00 +14°C° 0 mm 4 mps 745 mmHg 94%
    06:00 +14°C° 0 mm 4 mps 745 mmHg 93%
    07:00 +15°C° 0 mm 4 mps 745 mmHg 90%
    08:00 +17°C° 0 mm 5 mps 745 mmHg 86%
    09:00 +19°C° 0 mm 5 mps 745 mmHg 82%
    10:00 +20°C° 0.2 mm 5 mps 745 mmHg 79%
    11:00 +21°C° 0.2 mm 5 mps 745 mmHg 77%
    12:00 +22°C° 0.2 mm 5 mps 745 mmHg 74%
    13:00 +22°C° 0.6 mm 5 mps 745 mmHg 74%
    14:00 +23°C° 0.6 mm 5 mps 745 mmHg 73%
    15:00 +23°C° 0.6 mm 5 mps 745 mmHg 73%
    16:00 +23°C° 0.4 mm 5 mps 745 mmHg 75%
    17:00 +22°C° 0.4 mm 5 mps 745 mmHg 76%
    18:00 +22°C° 0.4 mm 4 mps 745 mmHg 78%
    19:00 +20°C° 0.1 mm 4 mps 745 mmHg 82%
    20:00 +19°C° 0.1 mm 3 mps 745 mmHg 87%
    21:00 +17°C° 0.1 mm 3 mps 745 mmHg 91%
    22:00 +17°C° 0 mm 3 mps 745 mmHg 92%
    23:00 +16°C° 0 mm 3 mps 745 mmHg 92%

    22 July, Monday

    Time Temperature Precipitation Wind Pressure Humidity
    00:00 +16°C° 0 mm 2 mps 745 mmHg 93%
    01:00 +15°C° 0 mm 2 mps 745 mmHg 93%
    02:00 +15°C° 0 mm 2 mps 745 mmHg 94%
    03:00 +14°C° 0 mm 2 mps 745 mmHg 94%
    04:00 +15°C° 0 mm 2 mps 745 mmHg 94%
    05:00 +15°C° 0 mm 2 mps 745 mmHg 93%
    06:00 +15°C° 0 mm 2 mps 745 mmHg 93%
    07:00 +17°C° 0 mm 2 mps 745 mmHg 87%
    08:00 +20°C° 0 mm 1 mps 745 mmHg 81%
    09:00 +21°C° 0 mm 1 mps 745 mmHg 76%
    10:00 +22°C° 0 mm 1 mps 745 mmHg 71%
    11:00 +23°C° 0 mm 1 mps 744 mmHg 65%
    12:00 +24°C° 0 mm 1 mps 744 mmHg 60%
    13:00 +24°C° 0 mm 1 mps 744 mmHg 59%
    14:00 +25°C° 0 mm 1 mps 744 mmHg 57%
    15:00 +25°C° 0 mm 1 mps 744 mmHg 56%
    16:00 +25°C° 0 mm 1 mps 743 mmHg 58%
    17:00 +25°C° 0 mm 1 mps 743 mmHg 61%
    18:00 +25°C° 0 mm 1 mps 743 mmHg 63%
    19:00 +23°C° 0 mm 1 mps 743 mmHg 68%
    20:00 +21°C° 0 mm 1 mps 743 mmHg 72%
    21:00 +19°C° 0 mm 1 mps 743 mmHg 77%
    22:00 +19°C° 0 mm 1 mps 743 mmHg 78%
    23:00 +18°C° 0 mm 1 mps 742 mmHg 80%

    23 July, Tuesday

    Time Temperature Precipitation Wind Pressure Humidity
    00:00 +16°C° 0 mm 1 mps 742 mmHg 82%
    01:00 +16°C° 0 mm 1 mps 742 mmHg 84%
    02:00 +15°C° 0 mm 2 mps 742 mmHg 86%
    03:00 +15°C° 0 mm 2 mps 742 mmHg 89%
    04:00 +15°C° 0 mm 2 mps 742 mmHg 89%
    05:00 +15°C° 0 mm 2 mps 742 mmHg 89%
    06:00 +15°C° 0 mm 2 mps 742 mmHg 89%
    07:00 +17°C° 0 mm 3 mps 742 mmHg 84%
    08:00 +18°C° 0 mm 3 mps 742 mmHg 80%
    09:00 +20°C° 0 mm 3 mps 741 mmHg 75%
    10:00 +21°C° 0 mm 3 mps 741 mmHg 72%
    11:00 +21°C° 0 mm 4 mps 741 mmHg 69%
    12:00 +22°C° 0 mm 4 mps 741 mmHg 66%
    13:00 +22°C° 0 mm 4 mps 741 mmHg 65%
    14:00 +24°C° 0 mm 3 mps 741 mmHg 63%
    15:00 +24°C° 0 mm 3 mps 741 mmHg 61%
    16:00 +24°C° 0 mm 3 mps 741 mmHg 64%
    17:00 +24°C° 0 mm 3 mps 741 mmHg 66%
    18:00 +24°C° 0 mm 3 mps 741 mmHg 69%
    19:00 +21°C° 0 mm 3 mps 741 mmHg 71%
    20:00 +19°C° 0 mm 3 mps 741 mmHg 73%
    21:00 +17°C° 0 mm 3 mps 741 mmHg 75%
    22:00 +17°C° 0 mm 3 mps 741 mmHg 78%
    23:00 +16°C° 0 mm 3 mps 741 mmHg 81%

    24 July, Wednesday

    Time Temperature Precipitation Wind Pressure Humidity
    00:00 +15°C° 0 mm 2 mps 741 mmHg 84%
    01:00 +15°C° 0 mm 2 mps 741 mmHg 86%
    02:00 +14°C° 0 mm 2 mps 741 mmHg 88%
    03:00 +14°C° 0 mm 2 mps 741 mmHg 90%
    04:00 +13°C° 0 mm 3 mps 741 mmHg 90%
    05:00 +13°C° 0 mm 3 mps 741 mmHg 90%
    06:00 +13°C° 0 mm 3 mps 741 mmHg 90%
    07:00 +16°C° 0 mm 3 mps 741 mmHg 86%
    08:00 +17°C° 0 mm 3 mps 741 mmHg 81%
    09:00 +19°C° 0 mm 4 mps 741 mmHg 77%
    10:00 +20°C° 0.1 mm 4 mps 741 mmHg 74%
    11:00 +21°C° 0.1 mm 4 mps 741 mmHg 70%
    12:00 +22°C° 0.1 mm 4 mps 741 mmHg 67%
    13:00 +22°C° 0.1 mm 4 mps 741 mmHg 67%
    14:00 +23°C° 0.1 mm 4 mps 741 mmHg 67%
    15:00 +23°C° 0.1 mm 5 mps 741 mmHg 67%
    16:00 +22°C° 0.1 mm 4 mps 741 mmHg 70%
    17:00 +21°C° 0.1 mm 4 mps 741 mmHg 73%
    18:00 +21°C° 0.1 mm 3 mps 741 mmHg 76%
    19:00 +19°C° 0 mm 3 mps 741 mmHg 75%
    20:00 +18°C° 0 mm 3 mps 742 mmHg 75%
    21:00 +17°C° 0 mm 3 mps 742 mmHg 75%
    22:00 +16°C° 0 mm 3 mps 742 mmHg 80%
    23:00 +16°C° 0 mm 3 mps 742 mmHg 84%
    Show more